This demonstration page uses our WeatherBlox Daily Observations layout. Learn more.

Hourly Observations for August 25, 2019

Temp ( °F °C ) Dew Point ( °F °C ) Humidity (%) Winds ( mph kmh ) Pressure ( in mb ) Visibility ( mi km ) Precip ( " mm )
12:15 am 00:15 Clear 63 17.1 63 17.1 100 100 ESE 5 7 29.91 1013 10 16.09344 0 0
12:35 am 00:35 Partly Cloudy 64 17.5 63 17.2 98 98 Calm 29.91 1013 10 16.09344 0 0
12:55 am 00:55 Cloudy 64 17.5 64 17.5 100 100 S 3 6 29.91 1013 10 16.09344 0 0
1:15 am 01:15 Mostly Cloudy 63 17.1 63 17.1 100 100 SE 6 9 29.91 1013 10 16.09344 0 0
1:35 am 01:35 Clear 63 17 62 16.5 97 97 SE 6 9 29.88 1012 10 16.09344 0 0
1:55 am 01:55 Clear 62 16.4 61 16.1 98 98 SSW 5 7 29.88 1012 10 16.09344 0 0
2:15 am 02:15 Clear 61 16 61 16 100 100 Calm 29.88 1012 10 16.09344 0 0
2:35 am 02:35 Clear 60 15.6 60 15.6 100 100 Calm 29.85 1011 10 16.09344 0 0
2:55 am 02:55 Clear 60 15.6 60 15.6 100 100 Calm 29.85 1011 7 11.265408 0 0
3:15 am 03:15 Clear 60 15.3 60 15.3 100 100 SE 5 7 29.88 1012 7 11.265408 0 0
3:35 am 03:35 Clear 60 15.8 60 15.8 100 100 SE 3 6 29.85 1011 10 16.09344 0 0
3:55 am 03:55 Clear 60 15.6 60 15.5 99 99 SE 3 6 29.85 1011 10 16.09344 0 0
4:15 am 04:15 Clear 60 15.6 60 15.5 99 99 SE 5 7 29.85 1011 10 16.09344 0 0
4:35 am 04:35 Mostly Cloudy 60 15.8 60 15.6 99 99 SSE 7 11 29.85 1011 10 16.09344 0 0
4:55 am 04:55 Mostly Cloudy 59 15.2 59 15.2 100 100 SSE 3 6 29.88 1012 10 16.09344 0 0
5:15 am 05:15 Partly Cloudy 59 15 59 15 100 100 SE 5 7 29.88 1012 10 16.09344 0 0
5:35 am 05:35 Partly Cloudy 59 15 59 15 100 100 SE 3 6 29.88 1012 10 16.09344 0.01 0.254
5:55 am 05:55 Partly Cloudy 59 15 59 15 100 100 Calm 29.85 1011 10 16.09344 0.01 0.254
6:15 am 06:15 Partly Cloudy with Mist and Fog 59 14.8 59 14.8 100 100 Calm 29.85 1011 5 8.04672 0 0
6:35 am 06:35 Mostly Cloudy with Mist and Fog 58 14.6 58 14.6 100 100 Calm 29.85 1011 5 8.04672 0 0
6:55 am 06:55 Cloudy with Mist and Fog 60 15.3 60 15.3 100 100 Calm 29.88 1012 5 8.04672 0 0
7:15 am 07:15 Cloudy with Mist and Fog 60 15.6 60 15.6 100 100 SE 5 7 29.85 1011 5 8.04672 0 0
7:35 am 07:35 Cloudy with Mist and Fog 61 16 61 16 100 100 SE 5 7 29.85 1011 4 6.437376 0 0
7:55 am 07:55 Cloudy with Mist and Fog 61 16.3 61 16.3 100 100 SE 5 7 29.85 1011 0.75 1.207008 0 0
8:15 am 08:15 Cloudy with Fog 62 16.5 62 16.5 100 100 SSE 6 9 29.85 1011 0.5 0.804672 0 0
8:35 am 08:35 Cloudy with Mist and Fog 63 17 63 17 100 100 SSE 6 9 29.85 1011 5 8.04672 0 0
8:55 am 08:55 Cloudy with Mist and Fog 63 17.4 63 17.4 100 100 SSE 5 7 29.85 1011 5 8.04672 0 0
9:15 am 09:15 Cloudy with Mist and Fog 64 17.8 64 17.7 99 99 S 6 9 29.85 1011 5 8.04672 0 0
9:35 am 09:35 Cloudy 65 18.1 64 17.9 99 99 SSW 5 7 29.85 1011 7 11.265408 0 0
9:55 am 09:55 Cloudy 66 18.7 65 18.4 98 98 S 6 9 29.85 1011 10 16.09344 0 0
10:15 am 10:15 Cloudy 67 19.3 65 18.4 95 95 S 8 13 29.83 1010 10 16.09344 0 0
10:35 am 10:35 Cloudy 68 20 65 18.6 92 92 SSE 9 15 29.83 1010 10 16.09344 0 0
10:55 am 10:55 Cloudy 68 20.1 65 18.5 91 91 SSE 9 15 29.83 1010 10 16.09344 0 0
11:15 am 11:15 Cloudy 70 21.1 66 18.9 87 87 SSE 12 19 29.83 1010 10 16.09344 0 0
11:35 am 11:35 Cloudy 72 22.1 67 19.2 84 84 SE 14 22 29.83 1010 10 16.09344 0 0
11:55 am 11:55 Mostly Cloudy 72 22.2 67 19.3 84 84 SSE 12 19 29.77 1008 10 16.09344 0 0
12:15 pm 12:15 Partly Cloudy 73 22.6 67 19.2 81 81 SSE 14 22 29.77 1008 10 16.09344 0 0
12:35 pm 12:35 Partly Cloudy 73 22.8 66 19 79 79 SSE 13 20 29.77 1008 10 16.09344 0 0
12:55 pm 12:55 Partly Cloudy 74 23.2 67 19.6 80 80 SE 10 17 29.77 1008 10 16.09344 0 0
1:15 pm 13:15 Partly Cloudy 75 23.7 67 19.7 78 78 SSE 9 15 29.77 1008 10 16.09344 0 0
1:35 pm 13:35 Mostly Cloudy 76 24.2 68 20 77 77 SE 12 19 29.77 1008 10 16.09344 0 0
1:55 pm 13:55 Cloudy 75 23.7 67 19.6 78 78 SSE 14 22 29.77 1008 10 16.09344 0 0
2:15 pm 14:15 Cloudy 75 24 68 20.1 79 79 SSE 14 22 29.74 1007 10 16.09344 0 0
2:35 pm 14:35 Mostly Cloudy 76 24.4 69 20.6 79 79 S 13 20 29.74 1007 10 16.09344 0 0
2:55 pm 14:55 Cloudy 75 24 69 20.4 80 80 S 12 19 29.74 1007 10 16.09344 0 0
3:15 pm 15:15 Cloudy 76 24.3 69 20.6 80 80 S 13 20 29.71 1006 10 16.09344 0 0
3:35 pm 15:35 Cloudy 75 24.1 69 20.6 81 81 S 12 19 29.71 1006 10 16.09344 0 0
3:55 pm 15:55 Cloudy 75 23.8 69 20.4 81 81 S 9 15 29.71 1006 10 16.09344 0 0
4:15 pm 16:15 Cloudy 75 23.8 69 20.6 82 82 S 8 13 29.71 1006 10 16.09344 0 0
4:35 pm 16:35 Cloudy 74 23.3 69 20.3 83 83 S 12 19 29.71 1006 10 16.09344 0 0
4:55 pm 16:55 Cloudy 76 24.7 69 20.7 79 79 S 7 11 29.68 1005 10 16.09344 0 0
5:15 pm 17:15 Cloudy 76 24.5 69 20.5 78 78 SSE 8 13 29.68 1005 10 16.09344 0 0
5:35 pm 17:35 Cloudy 76 24.2 69 20.5 80 80 SSE 8 13 29.68 1005 10 16.09344 0 0
5:55 pm 17:55 Mostly Cloudy 76 24.3 69 20.5 79 79 SSE 6 9 29.68 1005 10 16.09344 0 0
6:15 pm 18:15 Mostly Cloudy 77 25 69 20.6 77 77 SSE 9 15 29.65 1004 10 16.09344 0 0
6:35 pm 18:35 Mostly Cloudy 76 24.2 69 20.6 80 80 SSE 6 9 29.68 1005 10 16.09344 0 0
6:55 pm 18:55 Cloudy 76 24.7 70 20.9 79 79 SE 9 15 29.62 1003 10 16.09344 0 0
7:15 pm 19:15 Mostly Cloudy 76 24.5 69 20.7 79 79 SE 10 17 29.62 1003 10 16.09344 0 0
7:35 pm 19:35 Partly Cloudy 75 23.9 69 20.7 82 82 SE 9 15 29.65 1004 10 16.09344 0 0
7:55 pm 19:55 Mostly Cloudy 74 23.5 70 20.9 85 85 SE 7 11 29.65 1004 10 16.09344 0 0
8:15 pm 20:15 Cloudy 73 23 70 21 89 89 ESE 9 15 29.65 1004 10 16.09344 0 0
8:35 pm 20:35 Cloudy 73 22.5 70 21 91 91 SE 8 13 29.65 1004 10 16.09344 0 0
8:55 pm 20:55 Cloudy 72 22 69 20.6 92 92 SE 10 17 29.65 1004 10 16.09344 0 0
9:15 pm 21:15 Cloudy 71 21.9 69 20.6 92 92 SE 9 15 29.68 1005 10 16.09344 0 0
9:35 pm 21:35 Cloudy 71 21.6 69 20.5 93 93 SE 12 19 29.68 1005 10 16.09344 0 0
9:55 pm 21:55 Cloudy 71 21.5 69 20.5 94 94 ESE 9 15 29.68 1005 10 16.09344 0 0
10:15 pm 22:15 Cloudy 70 21.1 68 20.1 94 94 ESE 12 19 29.71 1006 10 16.09344 0 0
10:35 pm 22:35 Cloudy 69 20.8 68 20 95 95 SE 13 20 29.71 1006 10 16.09344 0 0
10:55 pm 22:55 Cloudy 69 20.5 67 19.6 95 95 SE 14 22 29.71 1006 10 16.09344 0 0
11:15 pm 23:15 Cloudy 68 20.1 67 19.4 96 96 SE 14 22 29.71 1006 10 16.09344 0 0
11:35 pm 23:35 Cloudy 68 20 66 19 94 94 SE 15 24 29.71 1006 10 16.09344 0 0
11:55 pm 23:55 Cloudy 68 19.8 66 18.8 94 94 SE 14 22 29.71 1006 10 16.09344 0 0

Powered by AerisWeather